Time,TemperatureF,DewpointF,PressureIn,WindDirection,WindDirectionDegrees,WindSpeedMPH,WindSpeedGustMPH,Humidity,HourlyPrecipIn,Conditions,Clouds,dailyrainin,SoftwareType,DateUTC
2013-08-02 00:12:00,60.0,59.0,-100.00,SW,230,0.0,0.0,95,0.00,,,-99.99,,2013-08-02 04:12:00,
2013-08-02 00:33:00,60.0,59.0,-100.00,SW,215,0.0,1.0,95,0.00,,,-99.99,,2013-08-02 04:33:00,
2013-08-02 00:43:00,59.0,58.0,-100.00,SW,215,0.0,0.0,95,0.00,,,-99.99,,2013-08-02 04:43:00,
2013-08-02 01:02:00,59.0,58.0,-100.00,SW,215,0.0,0.0,95,0.00,,,-99.99,,2013-08-02 05:02:00,
2013-08-02 01:32:00,59.0,58.0,-100.00,SW,215,0.0,0.0,95,0.00,,,-99.99,,2013-08-02 05:32:00,
2013-08-02 01:53:00,58.0,57.0,-100.00,SW,215,0.0,0.0,95,0.00,,,-99.99,,2013-08-02 05:53:00,
2013-08-02 02:02:00,58.0,57.0,-100.00,SW,215,0.0,0.0,95,0.00,,,-99.99,,2013-08-02 06:02:00,
2013-08-02 02:12:00,58.0,57.0,-100.00,SW,215,0.0,0.0,95,0.00,,,-99.99,,2013-08-02 06:12:00,
2013-08-02 02:22:00,58.0,57.0,-100.00,SW,215,0.0,0.0,95,0.00,,,-99.99,,2013-08-02 06:22:00,
2013-08-02 02:33:00,58.0,57.0,-100.00,SW,215,0.0,0.0,95,0.00,,,-99.99,,2013-08-02 06:33:00,
2013-08-02 02:43:00,58.0,57.0,-100.00,SW,220,0.0,0.0,95,0.00,,,-99.99,,2013-08-02 06:43:00,
2013-08-02 02:52:00,57.0,56.0,-100.00,SW,215,0.0,0.0,95,0.00,,,-99.99,,2013-08-02 06:52:00,
2013-08-02 03:02:00,57.0,56.0,-100.00,SW,215,0.0,0.0,95,0.00,,,-99.99,,2013-08-02 07:02:00,
2013-08-02 03:12:00,57.0,56.0,-100.00,SW,215,0.0,0.0,95,0.00,,,-99.99,,2013-08-02 07:12:00,
2013-08-02 03:22:00,57.0,56.0,-100.00,SW,215,1.0,2.0,95,0.00,,,-99.99,,2013-08-02 07:22:00,
2013-08-02 03:33:00,57.0,56.0,-100.00,SW,215,0.0,1.0,95,0.00,,,-99.99,,2013-08-02 07:33:00,
2013-08-02 03:44:00,57.0,56.0,-100.00,SW,215,0.0,1.0,95,0.00,,,-99.99,,2013-08-02 07:44:00,
2013-08-02 03:53:00,56.0,55.0,-100.00,SW,220,0.0,0.0,95,0.00,,,-99.99,,2013-08-02 07:53:00,
2013-08-02 04:02:00,56.0,55.0,-100.00,SW,215,0.0,1.0,95,0.00,,,-99.99,,2013-08-02 08:02:00,
2013-08-02 04:12:00,56.0,55.0,-100.00,SW,215,0.0,0.0,95,0.00,,,-99.99,,2013-08-02 08:12:00,
2013-08-02 04:22:00,56.0,55.0,-100.00,SW,215,0.0,0.0,95,0.00,,,-99.99,,2013-08-02 08:22:00,
2013-08-02 04:33:00,56.0,55.0,-100.00,SW,220,0.0,1.0,95,0.00,,,-99.99,,2013-08-02 08:33:00,
2013-08-02 04:43:00,56.0,54.0,-100.00,SW,215,0.0,0.0,95,0.00,,,-99.99,,2013-08-02 08:43:00,
2013-08-02 04:54:00,56.0,55.0,-100.00,SW,215,0.0,0.0,96,0.00,,,-99.99,,2013-08-02 08:54:00,
2013-08-02 05:02:00,55.0,54.0,-100.00,SW,215,0.0,0.0,96,0.00,,,-99.99,,2013-08-02 09:02:00,
2013-08-02 05:12:00,55.0,54.0,-100.00,SW,220,0.0,0.0,96,0.00,,,-99.99,,2013-08-02 09:12:00,
2013-08-02 05:23:00,55.0,54.0,-100.00,SW,215,0.0,0.0,96,0.00,,,-99.99,,2013-08-02 09:23:00,
2013-08-02 05:53:00,55.0,54.0,-100.00,SW,215,0.0,1.0,96,0.00,,,-99.99,,2013-08-02 09:53:00,
2013-08-02 06:03:00,55.0,54.0,-100.00,SW,215,0.0,0.0,96,0.00,,,-99.99,,2013-08-02 10:03:00,
2013-08-02 06:33:00,55.0,54.0,-100.00,SW,220,0.0,0.0,96,0.00,,,-99.99,,2013-08-02 10:33:00,
2013-08-02 06:43:00,55.0,54.0,-100.00,SW,215,0.0,0.0,96,0.00,,,-99.99,,2013-08-02 10:43:00,
2013-08-02 06:52:00,55.0,54.0,-100.00,SW,215,0.0,0.0,96,0.00,,,-99.99,,2013-08-02 10:52:00,
2013-08-02 07:23:00,55.0,54.0,-100.00,SW,215,0.0,0.0,96,0.00,,,-99.99,,2013-08-02 11:23:00,
2013-08-02 07:32:00,56.0,55.0,-100.00,SW,215,0.0,0.0,96,0.00,,,-99.99,,2013-08-02 11:32:00,
2013-08-02 07:43:00,56.0,55.0,-100.00,South,170,2.0,4.0,96,0.00,,,-99.99,,2013-08-02 11:43:00,
2013-08-02 08:12:00,57.0,56.0,-100.00,SE,135,2.0,4.0,96,0.00,,,-99.99,,2013-08-02 12:12:00,
2013-08-02 08:32:00,59.0,58.0,-100.00,South,170,2.0,4.0,96,0.00,,,-99.99,,2013-08-02 12:32:00,
2013-08-02 08:43:00,59.0,58.0,-100.00,South,175,3.0,5.0,96,0.00,,,-99.99,,2013-08-02 12:43:00,
2013-08-02 08:52:00,59.0,58.0,-100.00,South,175,3.0,5.0,96,0.00,,,-99.99,,2013-08-02 12:52:00,
2013-08-02 09:02:00,60.0,59.0,-100.00,South,170,3.0,6.0,96,0.00,,,-99.99,,2013-08-02 13:02:00,
2013-08-02 09:33:00,63.0,61.0,-100.00,South,190,2.0,4.0,94,0.00,,,-99.99,,2013-08-02 13:33:00,
2013-08-02 09:43:00,63.0,61.0,-100.00,South,190,2.0,4.0,94,0.00,,,-99.99,,2013-08-02 13:43:00,
2013-08-02 10:02:00,65.0,60.0,-100.00,SSW,200,2.0,6.0,83,0.00,,,-99.99,,2013-08-02 14:02:00,
2013-08-02 10:32:00,68.0,59.0,-100.00,SSW,210,2.0,5.0,73,0.00,,,-99.99,,2013-08-02 14:32:00,
2013-08-02 10:43:00,68.0,60.0,-100.00,SSE,150,1.0,4.0,73,0.00,,,-99.99,,2013-08-02 14:43:00,
2013-08-02 10:53:00,68.0,60.0,-100.00,SW,220,1.0,3.0,73,0.00,,,-99.99,,2013-08-02 14:53:00,
2013-08-02 11:03:00,69.0,60.0,-100.00,SE,145,1.0,4.0,75,0.00,,,-99.99,,2013-08-02 15:03:00,
2013-08-02 11:12:00,69.0,61.0,-100.00,SE,130,2.0,3.0,75,0.00,,,-99.99,,2013-08-02 15:12:00,
2013-08-02 11:22:00,69.0,60.0,-100.00,SSE,160,2.0,5.0,74,0.00,,,-99.99,,2013-08-02 15:22:00,
2013-08-02 11:32:00,69.0,61.0,-100.00,South,190,1.0,4.0,75,0.00,,,-99.99,,2013-08-02 15:32:00,
2013-08-02 11:43:00,70.0,62.0,-100.00,South,185,3.0,5.0,75,0.00,,,-99.99,,2013-08-02 15:43:00,
2013-08-02 11:52:00,70.0,61.0,-100.00,South,170,3.0,7.0,72,0.00,,,-99.99,,2013-08-02 15:52:00,
2013-08-02 12:02:00,70.0,61.0,-100.00,SSW,210,1.0,4.0,72,0.00,,,-99.99,,2013-08-02 16:02:00,
2013-08-02 12:12:00,70.0,61.0,-100.00,SSW,210,1.0,4.0,72,0.00,,,-99.99,,2013-08-02 16:12:00,
2013-08-02 12:32:00,69.0,63.0,-100.00,South,170,3.0,5.0,81,3.39,,,-99.99,,2013-08-02 16:32:00,
2013-08-02 12:43:00,69.0,63.0,-100.00,South,170,3.0,5.0,81,3.39,,,-99.99,,2013-08-02 16:43:00,
2013-08-02 12:53:00,69.0,64.0,-100.00,SSW,210,3.0,9.0,84,0.00,,,-99.99,,2013-08-02 16:53:00,
2013-08-02 13:02:00,68.0,63.0,-100.00,SSW,210,5.0,9.0,84,0.00,,,-99.99,,2013-08-02 17:02:00,
2013-08-02 13:12:00,68.0,62.0,-100.00,SSW,195,6.0,10.0,83,0.00,,,-99.99,,2013-08-02 17:12:00,
2013-08-02 13:35:00,67.0,62.0,-100.00,SW,215,5.0,8.0,82,0.55,,,-99.99,,2013-08-02 17:35:00,
2013-08-02 14:22:00,70.0,64.0,-100.00,SW,230,4.0,12.0,79,0.00,,,-99.99,,2013-08-02 18:22:00,
2013-08-02 14:32:00,70.0,62.0,-100.00,South,170,9.0,14.0,77,0.00,,,-99.99,,2013-08-02 18:32:00,
2013-08-02 14:43:00,70.0,62.0,-100.00,South,190,9.0,14.0,75,0.00,,,-99.99,,2013-08-02 18:43:00,
2013-08-02 15:02:00,70.0,62.0,-100.00,SSE,165,8.0,13.0,74,0.00,,,-99.99,,2013-08-02 19:02:00,
2013-08-02 15:12:00,71.0,62.0,-100.00,South,175,6.0,12.0,74,0.00,,,-99.99,,2013-08-02 19:12:00,
2013-08-02 15:32:00,71.0,61.0,-100.00,SE,135,5.0,10.0,70,0.00,,,-99.99,,2013-08-02 19:32:00,
2013-08-02 15:43:00,72.0,60.0,-100.00,SSE,150,5.0,12.0,67,0.00,,,-99.99,,2013-08-02 19:43:00,
2013-08-02 16:02:00,72.0,60.0,-100.00,South,185,6.0,11.0,65,0.55,,,-99.99,,2013-08-02 20:02:00,
2013-08-02 16:32:00,72.0,60.0,-100.00,SSE,160,2.0,10.0,67,0.00,,,-99.99,,2013-08-02 20:32:00,
2013-08-02 16:43:00,72.0,60.0,-100.00,SSE,160,7.0,12.0,66,0.00,,,-99.99,,2013-08-02 20:43:00,
2013-08-02 16:52:00,72.0,60.0,-100.00,SSE,150,7.0,15.0,65,0.00,,,-99.99,,2013-08-02 20:52:00,
2013-08-02 17:02:00,72.0,60.0,-100.00,SSE,150,6.0,14.0,66,0.00,,,-99.99,,2013-08-02 21:02:00,
2013-08-02 17:22:00,72.0,61.0,-100.00,SSE,160,6.0,13.0,68,0.00,,,-99.99,,2013-08-02 21:22:00,
2013-08-02 17:32:00,72.0,61.0,-100.00,SE,125,4.0,10.0,70,0.00,,,-99.99,,2013-08-02 21:32:00,
2013-08-02 18:02:00,70.0,64.0,-100.00,SE,130,4.0,11.0,81,6.77,,,-99.99,,2013-08-02 22:02:00,
2013-08-02 18:22:00,69.0,65.0,-100.00,SSE,150,4.0,9.0,85,0.00,,,-99.99,,2013-08-02 22:22:00,
2013-08-02 18:32:00,69.0,65.0,-100.00,SSE,155,4.0,7.0,87,0.55,,,-99.99,,2013-08-02 22:32:00,
2013-08-02 18:52:00,68.0,66.0,-100.00,South,170,4.0,7.0,92,0.00,,,-99.99,,2013-08-02 22:52:00,
2013-08-02 19:02:00,68.0,66.0,-100.00,SSE,160,3.0,7.0,92,1.10,,,-99.99,,2013-08-02 23:02:00,
2013-08-02 19:12:00,68.0,66.0,-100.00,SE,140,3.0,6.0,93,9.61,,,-99.99,,2013-08-02 23:12:00,
2013-08-02 19:22:00,68.0,66.0,-100.00,SE,140,3.0,6.0,93,9.61,,,-99.99,,2013-08-02 23:22:00,
2013-08-02 19:32:00,69.0,67.0,-100.00,SSW,205,1.0,3.0,94,17.56,,,-99.99,,2013-08-02 23:32:00,
2013-08-02 19:43:00,69.0,67.0,-100.00,SSE,155,3.0,7.0,94,2.83,,,-99.99,,2013-08-02 23:43:00,
2013-08-02 19:53:00,69.0,67.0,-100.00,South,170,4.0,8.0,94,0.00,,,-99.99,,2013-08-02 23:53:00,
2013-08-02 20:02:00,69.0,67.0,-100.00,SSW,195,4.0,12.0,95,0.55,,,-99.99,,2013-08-03 00:02:00,
2013-08-02 20:12:00,68.0,67.0,-100.00,NW,310,3.0,7.0,95,0.00,,,-99.99,,2013-08-03 00:12:00,
2013-08-02 20:22:00,68.0,67.0,-100.00,NW,310,3.0,7.0,95,0.00,,,-99.99,,2013-08-03 00:22:00,
2013-08-02 20:33:00,69.0,67.0,-100.00,SW,220,1.0,5.0,95,1.69,,,-99.99,,2013-08-03 00:33:00,
2013-08-02 20:43:00,69.0,67.0,-100.00,SW,215,2.0,6.0,95,1.10,,,-99.99,,2013-08-03 00:43:00,
2013-08-02 20:52:00,69.0,67.0,-100.00,SSW,195,2.0,6.0,95,0.00,,,-99.99,,2013-08-03 00:52:00,
2013-08-02 21:03:00,69.0,67.0,-100.00,South,185,2.0,5.0,95,2.83,,,-99.99,,2013-08-03 01:03:00,
2013-08-02 21:12:00,69.0,67.0,-100.00,SSW,205,3.0,7.0,95,9.06,,,-99.99,,2013-08-03 01:12:00,
2013-08-02 21:22:00,69.0,67.0,-100.00,SSW,205,3.0,7.0,95,9.06,,,-99.99,,2013-08-03 01:22:00,
2013-08-02 21:32:00,69.0,67.0,-100.00,South,190,4.0,7.0,95,5.67,,,-99.99,,2013-08-03 01:32:00,
2013-08-02 21:42:00,69.0,67.0,-100.00,SSE,160,1.0,6.0,95,0.55,,,-99.99,,2013-08-03 01:42:00,
2013-08-02 21:53:00,69.0,67.0,-100.00,WSW,245,2.0,7.0,95,0.55,,,-99.99,,2013-08-03 01:53:00,
2013-08-02 22:02:00,69.0,67.0,-100.00,SSW,200,2.0,8.0,95,0.00,,,-99.99,,2013-08-03 02:02:00,
2013-08-02 22:12:00,69.0,67.0,-100.00,West,275,1.0,6.0,95,0.00,,,-99.99,,2013-08-03 02:12:00,
2013-08-02 22:22:00,68.0,67.0,-100.00,SSW,210,2.0,8.0,95,0.00,,,-99.99,,2013-08-03 02:22:00,
2013-08-02 22:32:00,68.0,67.0,-100.00,SW,215,2.0,7.0,95,0.00,,,-99.99,,2013-08-03 02:32:00,
2013-08-02 22:43:00,68.0,67.0,-100.00,West,260,3.0,6.0,95,0.55,,,-99.99,,2013-08-03 02:43:00,
2013-08-02 23:02:00,68.0,67.0,-100.00,SSW,205,4.0,13.0,95,1.69,,,-99.99,,2013-08-03 03:02:00,
2013-08-02 23:22:00,68.0,67.0,-100.00,SW,225,3.0,11.0,95,0.00,,,-99.99,,2013-08-03 03:22:00,